Wind_Speed
17 17 16 16 15 15 15 15 14 13 12 12 11 11 10 10 10 10 9 10 10 10 10 10 10 10 10 10 10 9 9 9 8 8 8 8 7 6 5 6 6 6 5 5 5 5 5 5 5 5 6 6 7 7 7 6 6 6 6 5 5 5 4 5 7 8 9 10 11 12 12 12 12 11 12 13 13 13 14 14 15 15 16 15 15
17 17 16 16 15 15 15 15 15 14 14 14 13 12 12 11 11 10 10 10 10 10 11 11 10 10 10 9 9 9 9 9 9 9 8 8 8 8 7 7 7 7 6 6 6 6 5 6 6 6 6 7 7 7 7 7 6 6 6 5 5 5 5 6 7 8 10 10 10 12 12 12 12 12 13 13 14 14 15 15 15 15 16 16 16
17 16 16 16 16 15 15 15 15 15 15 15 15 14 13 13 12 12 12 12 11 11 11 11 11 10 9 9 9 9 9 10 10 9 9 9 8 8 8 8 8 8 7 7 7 6 6 7 7 7 7 6 6 7 7 7 6 6 6 6 6 6 6 7 8 9 10 11 10 11 12 12 12 13 12 13 14 15 15 15 15 15 16 16 17
16 16 16 16 16 16 16 15 16 16 16 15 15 15 14 13 13 13 13 12 12 12 11 11 11 11 10 10 10 10 10 10 10 10 10 9 9 9 8 8 8 8 7 7 7 7 7 7 7 7 7 6 6 7 7 7 6 6 6 6 7 7 7 7 8 8 10 11 11 12 12 12 13 13 13 14 15 15 15 15 16 16 16 16 17
16 17 16 16 16 16 16 16 16 16 16 16 15 15 14 14 14 14 13 12 12 12 12 11 11 12 11 11 11 11 11 11 11 11 11 10 10 10 9 9 9 8 8 8 8 8 8 8 8 8 8 8 8 8 7 6 6 6 7 7 7 8 8 8 8 9 10 12 12 12 12 13 13 13 13 14 15 16 15 15 16 15 15 15 16
17 17 16 16 16 16 16 16 16 16 16 16 16 15 15 14 14 14 13 13 12 12 13 13 12 12 12 11 12 12 12 11 11 11 11 10 10 10 10 10 10 9 9 9 9 9 9 9 9 9 9 9 9 8 8 7 7 7 8 8 8 8 9 9 10 10 11 12 13 13 13 13 13 13 13 14 16 16 16 15 15 15 15 15 16
18 17 16 16 16 16 16 16 16 16 16 15 15 15 16 15 14 14 13 13 14 13 13 13 13 13 13 13 12 12 12 12 12 11 11 10 10 10 10 10 10 10 10 10 10 11 10 10 10 10 10 11 10 10 9 8 9 9 8 8 8 9 9 10 10 11 11 12 13 13 13 13 13 14 14 14 15 15 14 15 16 16 16 16 17
17 17 17 17 16 16 16 15 15 15 14 14 14 13 14 15 14 14 13 14 15 14 14 14 13 13 13 13 13 13 13 13 12 12 12 12 11 11 11 11 11 11 11 11 11 11 11 11 11 11 12 12 11 10 9 8 8 9 8 8 9 9 10 11 11 11 12 13 13 14 14 14 14 15 14 13 13 13 13 15 16 17 17 17 18
16 16 16 16 16 16 15 14 13 13 11 12 13 13 12 13 14 14 14 14 14 14 15 15 14 14 14 14 14 13 13 13 13 13 12 12 12 12 11 11 11 12 12 12 12 12 12 12 12 12 12 12 13 13 12 10 9 9 9 9 9 10 11 11 11 12 12 13 14 14 14 15 15 14 14 13 13 13 15 16 17 18 19 20 19
13 14 15 15 15 16 15 14 13 13 12 12 12 12 13 13 14 14 15 15 14 14 15 15 15 15 15 15 14 14 14 14 14 15 14 12 11 10 11 11 11 12 12 12 13 13 12 13 13 12 11 11 13 15 15 14 13 13 13 13 12 12 11 12 12 12 13 14 14 15 15 15 15 14 15 15 14 14 15 17 18 19 20 19 20
12 12 12 13 13 14 14 13 13 13 12 12 12 12 13 13 14 13 14 15 15 15 15 15 16 16 15 15 15 14 14 13 12 15 17 16 13 10 10 10 11 11 12 13 13 13 13 14 13 14 13 12 13 15 16 15 15 14 15 16 17 16 15 14 14 13 13 14 15 15 15 16 15 15 16 17 16 15 16 17 18 19 18 17 18
11 11 10 10 11 12 12 12 12 12 11 10 10 10 11 12 13 13 13 14 14 15 15 16 16 16 16 16 16 14 12 12 12 13 15 16 16 14 12 11 12 12 13 13 14 14 15 15 15 15 15 12 13 14 15 14 14 15 16 15 16 18 19 20 18 16 15 15 15 16 16 16 17 16 17 17 17 16 16 16 16 17 17 17 18
9 8 7 7 8 9 10 10 12 12 10 9 8 8 9 10 11 11 11 11 11 13 15 15 15 16 16 16 16 11 8 12 15 14 14 15 15 15 14 13 14 14 14 14 14 14 14 14 15 16 14 11 10 12 13 13 14 17 18 16 16 17 18 20 21 20 19 17 16 17 17 17 17 18 18 18 17 17 17 17 17 17 17 18 19
9 9 7 7 7 9 10 11 12 13 12 11 11 10 10 10 10 10 9 9 9 9 12 14 14 14 14 14 12 7 6 10 12 13 14 14 14 15 15 14 14 15 15 15 15 15 15 15 15 17 16 15 14 13 13 13 14 15 16 16 16 17 17 18 19 19 20 19 19 20 20 18 18 19 18 17 17 17 17 18 19 19 20 22 23
8 9 9 8 9 11 13 14 14 13 13 13 14 14 13 13 13 11 9 9 10 10 11 12 11 10 11 9 5 2 3 6 8 9 11 12 13 14 14 13 13 14 15 15 15 15 14 14 14 16 16 15 15 14 13 12 12 13 15 16 16 17 18 17 16 16 18 20 21 22 21 18 17 16 16 17 19 21 22 22 22 22 23 24 23
4 5 7 8 8 9 11 12 11 12 13 13 12 11 12 12 12 11 9 10 13 11 10 11 12 11 10 6 2 2 3 4 7 9 10 11 12 12 11 11 12 13 14 14 12 12 11 11 14 16 14 10 9 11 12 13 12 12 14 16 17 17 17 16 14 14 16 18 19 19 18 18 18 18 19 21 23 24 25 23 21 20 21 21 21
7 6 7 7 7 6 6 8 8 8 10 11 9 7 7 8 7 7 7 7 8 8 7 7 9 9 5 1 3 7 5 4 5 7 8 10 10 10 10 11 12 13 13 11 10 11 11 10 9 10 11 10 9 9 10 12 12 12 14 17 17 16 15 14 13 13 13 14 17 18 19 20 20 21 22 22 21 21 22 21 19 20 20 19 20
12 10 9 7 7 7 6 6 7 7 7 8 8 6 5 5 5 4 3 3 4 6 5 4 3 4 5 8 5 6 5 3 4 6 7 8 8 8 9 10 10 11 10 7 8 10 9 7 5 4 6 10 11 10 11 12 11 12 14 16 16 15 12 11 11 11 11 12 14 16 18 19 20 20 21 20 19 19 22 22 21 21 19 17 18
13 11 9 8 7 6 5 5 6 7 7 8 8 7 7 7 5 5 5 4 4 5 5 6 4 3 6 9 6 3 3 3 4 5 7 8 7 7 7 8 9 11 9 5 6 8 6 6 9 8 8 10 11 11 12 12 11 12 13 14 15 14 11 10 11 13 13 14 15 17 18 19 19 19 19 19 18 17 18 19 18 18 17 16 18
14 12 11 10 7 6 6 7 8 9 9 9 8 8 9 8 7 6 6 4 4 5 6 7 7 6 7 6 2 1 1 1 0 2 4 5 7 7 5 5 6 8 7 4 5 7 5 4 8 10 10 10 11 12 13 13 13 13 12 12 13 13 14 15 15 15 16 17 17 18 19 18 18 16 15 16 18 16 14 13 13 15 15 16 17
13 13 13 11 8 7 8 9 11 11 11 10 9 9 9 9 7 6 7 6 5 5 6 6 6 7 7 5 3 4 4 4 4 3 3 2 2 4 2 3 3 3 4 3 3 4 3 3 5 8 11 11 11 12 12 13 13 12 10 10 13 15 17 18 17 14 15 16 16 16 17 16 16 14 12 13 16 16 14 14 14 15 16 17 18
13 13 12 10 7 7 8 9 10 10 9 9 9 8 8 8 7 6 7 7 6 6 6 6 6 7 7 6 6 6 6 6 7 6 6 6 3 2 1 1 2 1 3 2 1 1 1 2 6 10 11 11 10 9 9 10 11 11 10 11 13 14 15 15 14 13 14 13 13 14 14 13 13 13 13 13 14 15 15 16 17 17 19 19 20
11 10 9 8 6 7 8 7 7 8 7 7 7 7 6 7 7 7 7 6 6 5 5 4 5 7 7 6 6 5 5 6 7 6 5 6 5 4 4 3 4 2 3 2 1 1 1 2 7 9 8 8 8 8 8 8 8 10 11 11 11 11 11 11 10 11 12 12 12 12 11 11 11 12 13 13 13 15 17 18 17 17 19 20 20
7 6 5 5 5 5 6 6 5 6 6 5 5 5 5 5 5 4 4 3 4 4 3 2 4 5 5 5 5 4 4 6 7 7 6 7 7 6 6 6 5 5 5 5 3 3 2 3 6 6 5 6 6 7 7 8 8 9 10 9 8 7 8 9 8 9 10 10 10 10 10 10 10 11 12 14 16 18 19 17 16 15 17 19 20
6 5 4 4 4 4 5 5 5 5 5 4 4 3 3 4 4 3 2 2 2 2 1 1 2 2 3 3 3 3 4 5 6 6 7 7 7 8 8 7 6 6 6 6 5 5 5 5 6 6 5 6 6 6 6 8 8 8 7 7 6 7 7 8 8 9 9 9 9 10 10 10 10 10 13 16 17 18 16 15 15 15 16 17 18
5 5 4 3 3 3 4 5 5 5 5 4 4 3 2 2 3 1 1 1 1 0 1 1 1 2 2 2 3 3 3 3 3 3 5 5 6 7 9 8 7 6 6 6 7 8 8 8 8 7 6 6 6 5 6 6 6 7 6 6 6 7 6 7 8 9 9 9 10 11 11 12 12 12 13 14 15 15 14 15 16 16 17 18 19
5 4 3 2 3 2 2 2 4 5 5 5 4 4 3 3 3 2 0 1 1 1 1 1 0 1 2 2 3 3 2 2 4 4 4 4 6 7 8 8 8 8 7 6 6 7 8 9 9 7 6 7 7 6 7 5 5 7 6 6 7 7 6 7 8 7 8 10 11 12 12 12 12 13 13 13 13 13 13 14 15 16 17 17 18
4 4 3 2 2 2 1 2 2 3 4 3 4 5 5 3 3 3 4 5 4 4 2 0 1 2 1 2 2 3 3 5 6 4 4 5 6 8 8 7 6 7 8 7 5 5 6 9 10 8 7 9 9 8 8 7 5 6 6 6 8 7 6 7 7 6 7 11 12 12 12 12 12 13 13 12 12 12 13 13 14 15 16 16 17
3 3 3 2 2 2 3 4 2 2 3 4 7 8 9 9 8 7 6 5 5 7 7 5 5 5 3 1 1 2 6 9 7 3 3 4 5 6 7 6 6 6 7 6 5 5 6 8 8 7 7 8 8 6 6 5 5 6 6 6 8 7 6 7 7 6 9 12 12 11 12 12 13 13 13 12 12 12 13 14 14 15 16 16 16
3 3 3 3 2 1 1 2 2 1 3 5 5 3 2 5 7 8 6 3 3 5 7 6 6 7 6 4 3 5 7 8 5 4 3 4 4 5 5 6 7 7 7 6 6 7 7 7 7 6 6 7 7 5 6 6 6 7 7 8 7 6 7 7 6 8 11 12 11 11 12 12 12 12 12 13 13 13 14 14 14 14 15 16 16
3 3 3 3 3 2 2 2 2 1 1 3 4 4 3 1 4 4 4 3 3 4 5 5 4 4 5 4 2 3 5 4 3 3 3 3 4 5 5 6 7 8 8 7 7 8 7 6 6 5 5 6 6 5 6 7 7 7 8 8 7 7 8 7 8 10 12 11 10 11 11 12 12 12 12 13 15 15 14 14 14 14 15 15 16
2 3 4 4 3 2 3 3 2 1 1 1 1 2 3 2 1 1 2 2 2 3 4 4 4 4 2 2 2 2 3 3 3 3 2 3 4 4 5 6 7 7 6 5 6 7 6 6 5 5 5 6 6 6 7 8 8 8 9 9 8 8 8 9 10 12 11 10 10 11 12 11 11 12 13 14 14 15 14 14 14 14 15 15 15
3 3 4 4 3 2 2 3 2 1 1 1 1 2 3 3 3 4 4 4 4 3 4 4 3 4 4 3 2 2 3 4 4 4 4 4 5 5 6 7 7 5 4 5 6 6 5 5 5 4 5 6 6 6 7 7 8 8 9 9 9 9 9 10 11 11 10 10 11 12 12 12 12 13 13 14 13 14 14 14 15 15 15 15 16
3 3 4 4 2 2 2 2 1 0 0 1 1 2 3 4 4 2 3 5 6 5 3 4 4 4 4 5 6 6 6 6 6 6 6 6 6 7 8 9 10 8 6 5 5 5 5 5 5 5 5 6 6 7 7 7 7 8 9 9 9 10 10 11 11 10 10 11 12 12 12 13 13 13 14 14 14 14 15 15 15 15 15 16 16
2 4 5 4 2 2 2 1 1 0 1 2 3 3 3 3 4 4 5 4 4 4 4 6 6 6 5 4 5 6 7 7 8 8 9 9 8 9 10 11 11 10 9 9 7 5 5 5 5 5 6 6 7 8 8 8 8 9 9 10 10 10 11 11 10 10 12 13 12 12 12 13 13 13 13 14 14 15 15 15 15 15 15 16 17
3 5 6 3 2 2 2 1 1 0 1 2 4 5 5 4 4 5 5 5 5 6 4 4 6 6 4 4 5 6 6 6 7 9 11 11 10 9 9 10 10 9 7 7 6 7 7 7 7 7 7 7 8 9 9 9 10 10 10 11 11 11 11 11 11 12 12 12 12 12 12 12 13 13 14 14 15 15 15 15 16 16 16 17 18
2 3 4 3 1 2 2 2 1 1 2 3 4 5 5 5 5 6 6 6 5 5 6 4 4 5 6 6 6 5 4 5 9 12 10 9 9 8 9 9 9 8 8 7 7 8 8 8 8 8 9 9 9 10 10 10 10 11 11 11 12 12 12 12 13 13 12 12 12 12 12 12 13 13 14 15 15 15 16 16 17 17 17 18 19
2 1 2 3 2 1 2 2 2 3 4 5 5 5 5 6 6 6 7 7 6 6 6 7 6 7 7 6 5 3 3 7 11 13 10 9 8 8 9 8 8 8 8 8 8 9 9 9 9 9 10 10 10 10 11 11 11 11 11 12 13 13 12 12 12 12 12 12 12 12 12 13 13 13 14 15 16 16 16 17 17 18 19 19 19
4 2 3 4 2 2 2 3 3 3 4 5 5 5 5 6 6 7 7 7 7 7 7 7 9 9 8 5 2 2 5 7 9 10 9 7 7 8 8 8 9 9 9 9 9 9 9 10 10 10 10 10 10 11 11 12 12 12 13 13 13 13 12 12 12 11 12 12 12 13 13 14 14 14 15 15 16 16 17 18 18 19 20 19 19
6 5 6 6 4 4 4 4 5 5 5 5 5 5 6 6 7 8 8 8 8 8 7 8 8 6 4 4 5 6 8 9 9 10 10 9 8 8 8 9 9 9 10 10 9 9 9 10 10 10 10 10 11 11 12 12 13 13 13 13 13 13 13 12 12 12 12 12 13 13 14 14 15 15 15 16 16 18 19 19 19 19 19 20 20
8 7 7 5 5 6 6 6 6 6 5 5 5 5 6 6 7 8 8 8 9 8 7 8 7 3 1 4 7 7 8 11 13 13 12 11 10 8 8 9 10 10 10 10 10 9 9 10 10 10 10 10 11 12 12 13 13 13 13 13 13 13 13 12 13 13 13 13 14 14 14 15 16 16 16 17 18 19 19 19 19 19 20 20 20
10 8 7 6 5 6 7 7 6 6 6 5 5 6 6 6 7 7 7 8 8 8 7 8 7 2 1 5 9 9 9 12 15 14 13 12 10 9 9 10 9 9 10 10 9 9 10 10 10 11 11 11 11 12 12 12 13 13 13 13 14 14 14 14 14 14 14 14 14 15 16 16 17 17 17 18 19 19 19 20 20 20 21 21 21
14 11 9 9 8 8 8 7 6 6 6 6 6 6 6 7 7 7 6 7 7 7 8 9 8 4 1 5 9 11 11 12 13 12 12 11 10 10 10 10 10 10 10 9 9 9 10 10 11 11 11 11 11 12 12 12 13 13 13 14 14 14 14 14 14 14 15 15 15 15 16 17 17 18 18 18 19 19 20 20 20 21 21 21 21
13 12 11 10 10 9 8 7 7 6 6 6 6 5 6 6 6 6 7 7 8 8 9 10 11 8 5 4 7 9 9 9 10 10 11 11 10 10 10 10 10 10 10 9 9 9 10 11 11 11 12 12 12 12 12 12 13 13 13 13 14 14 14 14 13 13 14 14 15 16 17 17 17 18 18 18 19 20 20 21 21 22 22 22 22
12 11 11 10 10 9 8 7 7 7 6 6 6 7 7 7 7 7 7 8 9 9 9 10 11 11 10 9 9 9 9 9 9 10 10 10 10 10 10 10 9 9 10 10 10 10 11 11 11 11 12 12 12 12 12 12 12 12 12 13 14 14 12 11 11 12 14 15 16 17 17 17 18 18 19 20 21 21 21 21 22 22 22 23 23
11 10 11 11 10 9 8 7 7 7 6 6 7 7 7 7 7 7 8 8 8 8 9 9 10 10 11 11 10 10 10 10 10 10 10 10 10 10 10 10 10 10 10 10 10 10 10 11 11 11 12 12 12 12 12 12 12 12 12 12 12 11 10 11 13 14 15 15 16 16 17 19 20 20 21 21 21 21 21 22 22 23 23 23 24
9 8 8 9 9 9 9 7 6 6 6 7 7 7 7 7 7 7 7 8 8 8 9 10 10 10 10 10 10 10 10 10 10 10 10 10 10 10 10 10 11 10 10 10 10 10 10 10 11 11 11 12 12 12 12 12 12 11 11 11 11 11 13 15 15 13 13 15 17 18 20 21 21 20 21 21 21 21 23 23 23 23 23 23 24
9 8 8 9 8 9 9 7 7 7 7 7 8 7 7 7 7 7 7 7 7 8 9 10 9 9 9 10 9 10 10 10 10 10 10 10 10 10 10 10 10 10 10 10 10 10 10 10 10 11 11 11 12 12 11 11 11 10 10 10 10 11 14 15 14 14 16 18 18 18 20 21 20 20 21 21 21 22 23 23 23 23 23 23 24
8 7 8 9 9 9 8 8 8 9 9 8 8 8 8 7 7 6 6 6 7 8 9 9 8 8 8 9 9 9 9 10 10 10 10 10 10 10 10 10 10 10 10 10 10 10 10 10 11 11 11 11 11 11 11 11 11 10 9 9 11 13 15 17 17 19 21 20 18 16 18 20 20 21 21 22 22 22 23 23 23 24 24 24 24
10 9 10 10 9 9 9 9 9 9 9 8 7 7 7 6 6 6 6 7 7 8 8 7 7 7 8 9 9 9 9 9 9 10 10 10 10 10 10 10 10 10 10 10 10 10 11 10 10 11 10 10 11 11 10 10 10 10 10 12 15 17 18 20 21 23 22 21 19 18 19 20 21 21 22 22 22 22 23 23 24 25 25 26 26
13 13 12 11 9 8 8 8 8 8 7 7 7 6 6 6 6 6 7 7 7 7 7 7 7 8 8 9 9 9 9 9 9 9 9 9 10 10 10 10 10 10 10 10 10 10 10 10 10 10 10 10 10 10 10 10 10 11 12 15 17 19 20 21 23 22 21 21 23 22 20 20 21 22 22 22 22 22 23 24 25 26 27 26 26
Wind_Direction
185 187 189 191 189 187 191 193 196 199 195 194 195 193 194 195 192 188 187 188 187 186 190 190 189 194 194 193 192 186 189 198 197 197 204 210 221 229 217 211 232 245 244 246 250 250 250 255 262 269 272 274 280 282 280 276 271 268 266 265 282 299 300 289 291 300 305 305 304 308 314 316 314 315 317 316 314 315 315 311 310 308 309 313 315
184 185 189 192 191 191 192 192 195 200 198 195 195 195 194 194 193 190 190 192 191 190 193 193 192 195 196 195 194 186 187 200 203 201 207 210 216 223 219 218 231 239 240 244 248 248 246 248 253 256 255 256 265 274 277 280 280 279 279 278 284 292 292 287 292 298 301 302 304 306 310 312 311 313 314 311 310 311 309 308 310 311 313 315 316
184 184 190 193 192 193 194 194 195 199 203 201 198 199 196 193 193 194 194 193 193 194 196 193 191 196 198 193 194 193 191 203 211 209 211 213 217 227 225 220 224 230 235 238 241 244 244 247 251 252 251 249 252 266 278 283 286 286 287 288 286 284 282 282 286 293 298 302 304 304 308 311 308 308 308 307 308 307 306 308 310 312 314 315 316
186 183 190 193 193 194 195 197 197 199 205 206 203 203 201 196 195 197 199 197 193 194 198 195 189 194 201 194 194 202 200 205 214 214 214 217 220 229 230 225 227 230 235 240 240 245 247 250 254 256 258 259 258 265 271 272 277 281 281 283 285 285 285 284 286 291 294 297 299 301 306 307 304 306 309 309 307 306 308 311 311 311 313 315 315
189 185 191 194 193 196 197 199 200 201 205 207 204 206 207 202 200 201 203 202 198 194 195 197 190 192 203 201 199 206 206 207 214 216 218 220 221 225 226 227 232 231 234 239 240 243 248 251 256 258 259 258 256 259 265 270 276 280 282 284 285 287 289 288 286 286 285 289 294 296 297 297 297 302 307 307 308 309 310 312 312 313 315 315 315
190 187 191 193 192 196 200 201 201 201 206 208 204 204 208 208 206 205 203 204 205 199 195 199 198 198 205 206 203 207 209 210 214 218 223 223 223 226 226 226 231 233 234 238 237 239 244 247 250 254 257 259 258 260 265 270 272 271 274 278 280 282 283 281 279 276 276 281 287 291 293 293 297 302 304 305 305 306 308 310 312 314 315 314 313
189 188 191 194 192 194 201 203 204 203 205 210 209 204 205 209 211 210 208 208 209 206 201 202 202 201 205 209 208 208 209 212 214 217 224 227 227 230 232 231 232 234 239 241 241 241 242 242 244 248 252 255 259 261 261 262 263 263 264 268 272 275 277 280 282 281 282 284 287 291 294 297 302 303 301 300 297 297 305 310 312 313 312 310 310
185 186 189 193 192 194 200 203 207 208 205 208 215 213 207 206 211 213 213 215 215 213 211 210 208 208 208 211 213 212 212 215 217 218 223 228 230 231 233 235 237 238 242 245 247 248 248 247 245 245 246 246 249 255 261 265 268 268 269 270 272 276 279 282 284 284 285 286 289 292 294 296 295 294 294 297 298 302 311 313 311 311 310 309 308
185 186 188 190 190 193 199 202 206 212 209 205 213 219 215 209 210 212 216 220 221 218 218 217 215 216 215 215 219 220 220 220 220 220 221 225 232 236 236 236 240 244 247 250 252 253 254 255 254 252 247 237 233 239 249 262 271 274 278 280 279 278 278 280 283 285 285 285 287 289 289 289 288 290 297 303 305 310 314 313 311 310 309 308 306
183 187 188 187 186 188 193 195 198 203 205 204 207 214 217 216 216 215 215 219 224 224 224 223 220 220 221 220 220 223 227 227 223 219 218 220 226 235 239 238 240 246 249 252 255 257 258 260 264 267 259 236 228 238 251 262 266 264 265 267 268 269 270 272 276 278 281 283 285 289 290 292 296 302 306 305 306 310 311 310 309 307 307 306 302
186 191 189 184 181 180 182 185 189 194 198 202 206 209 214 218 219 218 216 218 223 225 226 227 226 225 225 224 225 228 229 230 223 214 214 220 226 236 246 246 244 247 250 254 257 260 262 263 263 265 263 251 244 249 256 260 259 259 261 261 259 258 258 260 263 267 272 275 279 286 291 294 299 302 301 301 305 308 307 305 304 305 307 305 301
191 191 186 180 178 179 182 186 191 193 194 197 203 208 215 216 216 219 221 221 222 224 226 228 228 230 231 228 230 231 222 217 222 220 218 222 229 238 250 255 254 252 251 252 255 257 260 263 263 262 262 254 244 245 250 254 259 266 270 265 259 255 254 254 255 257 263 271 278 283 287 292 295 296 298 302 307 307 305 304 303 303 302 300 298
192 188 180 179 185 192 197 202 204 204 201 201 204 208 215 216 217 219 223 226 227 226 227 228 229 232 235 235 236 231 203 200 212 220 222 225 229 235 245 255 258 259 258 256 257 258 259 264 268 271 274 267 250 245 248 253 261 271 275 273 269 265 261 258 256 256 259 266 274 279 282 288 291 292 297 302 304 304 302 303 303 301 299 297 296
172 169 169 187 205 214 214 213 213 210 208 212 217 219 220 220 222 223 225 230 234 233 235 237 236 235 236 237 236 219 182 194 205 213 221 227 234 240 247 254 256 259 261 261 261 263 262 263 263 264 268 273 273 268 261 256 258 262 266 270 273 274 274 271 266 263 260 260 265 269 274 280 285 290 297 301 302 303 303 304 303 300 296 294 292
154 156 157 176 202 215 214 212 212 208 207 211 217 220 222 224 224 224 225 229 230 235 242 245 249 253 249 246 235 156 165 202 212 222 232 239 247 250 252 256 258 260 262 261 264 268 270 277 281 274 270 271 269 264 257 254 258 262 263 265 266 267 270 271 271 271 268 264 265 268 272 276 280 284 291 297 299 300 300 300 299 296 293 291 289
165 160 150 162 186 202 206 207 208 207 207 208 210 214 220 224 224 219 221 229 229 233 242 244 249 260 266 271 263 229 240 239 231 237 243 245 250 254 255 259 262 263 264 266 272 276 278 288 299 300 302 300 275 258 249 248 260 274 275 271 270 271 275 279 281 280 275 266 260 261 263 266 270 276 284 293 298 300 300 298 296 292 290 291 291
123 123 120 132 148 159 175 186 189 194 202 201 198 202 208 211 212 208 215 226 219 212 217 221 227 231 227 172 204 219 225 239 245 252 257 255 255 258 261 263 264 266 269 272 280 285 282 283 295 304 307 304 291 274 262 261 272 285 285 281 283 287 291 294 287 280 276 265 256 255 259 266 275 285 293 299 304 305 299 293 295 299 299 298 298
108 107 103 110 127 140 153 168 172 178 189 187 177 167 161 162 163 164 169 174 165 165 158 140 163 184 130 104 131 183 189 213 254 272 278 271 263 260 262 261 263 271 276 282 284 279 275 278 287 287 277 278 284 288 286 287 292 295 294 294 294 296 301 304 296 292 292 283 272 270 275 282 291 298 303 308 311 307 294 286 290 300 303 302 302
100 100 98 97 107 128 141 148 157 165 168 161 153 142 130 123 118 108 99 97 110 112 99 86 87 117 114 112 124 155 175 201 239 266 274 270 256 252 265 268 264 266 274 292 290 268 257 274 284 285 283 282 286 290 293 297 299 299 301 301 299 298 301 305 308 308 301 292 287 288 291 295 299 300 303 306 305 301 297 292 289 289 288 289 295
91 91 94 92 92 106 112 106 109 115 118 118 122 126 119 109 108 112 110 113 115 104 93 86 89 104 121 138 151 35 44 109 160 268 271 271 250 239 267 295 282 270 271 282 278 264 261 283 285 287 293 291 289 290 292 295 297 298 302 304 300 300 300 300 304 303 297 292 292 293 294 298 301 303 303 300 297 298 302 300 289 282 283 288 291
83 84 89 88 84 88 90 88 88 89 92 99 103 107 108 107 113 123 122 119 111 106 109 107 102 104 109 123 118 76 66 69 60 50 33 1 252 219 258 315 301 289 292 289 287 289 304 322 303 304 310 306 301 300 298 298 297 296 295 292 291 294 298 302 305 302 298 297 298 298 299 303 307 308 307 309 313 314 310 304 299 295 294 293 292
84 81 87 88 87 94 91 84 82 82 90 101 101 97 100 101 98 95 98 101 94 91 101 107 110 110 105 102 100 85 70 67 65 60 52 45 62 123 51 319 201 255 314 309 297 316 2 345 321 319 321 320 319 318 315 311 306 303 301 298 298 302 304 305 305 302 300 301 301 302 305 309 314 316 318 326 331 326 317 312 309 304 301 297 293
86 81 88 92 95 100 94 87 90 94 98 104 102 100 102 99 94 94 100 108 109 104 107 111 112 114 112 109 109 97 69 57 56 59 61 56 62 76 70 89 137 117 16 21 19 351 41 331 317 319 325 330 331 330 330 327 319 315 315 315 317 320 317 311 306 307 312 314 314 317 320 325 331 331 333 337 335 327 323 320 314 307 306 307 304
102 99 107 111 114 116 109 107 114 112 109 109 107 110 113 106 103 109 113 124 126 114 111 117 113 114 118 116 116 117 103 81 64 56 62 60 54 58 63 77 106 92 53 46 42 22 9 311 306 319 334 337 337 337 338 338 331 325 327 328 324 319 317 317 315 318 324 326 326 328 329 331 337 335 331 330 326 322 322 321 319 317 314 314 314
128 136 146 141 143 148 142 142 141 131 130 131 124 130 143 134 123 119 101 97 112 109 105 108 108 114 121 123 127 127 122 111 86 56 46 47 43 45 48 52 72 77 57 44 35 16 357 332 327 335 338 336 340 336 324 325 334 342 353 356 333 304 301 313 320 321 320 319 319 320 320 323 327 324 321 321 320 320 319 318 320 323 321 318 316
129 135 146 146 151 165 168 167 159 149 147 149 149 161 165 127 111 127 178 143 121 154 214 173 156 155 146 133 127 115 105 121 109 57 29 23 23 30 36 36 40 44 33 24 11 353 343 340 339 337 331 327 330 312 289 301 336 346 348 348 330 310 309 325 327 324 322 323 323 322 320 320 321 320 319 317 315 316 319 319 321 322 322 321 318
116 122 133 147 162 178 190 178 160 160 167 169 166 164 156 140 139 145 200 158 152 223 236 216 196 173 164 153 140 138 131 101 81 48 20 8 7 19 30 29 26 22 11 1 349 329 321 320 319 320 316 305 296 278 263 269 316 323 314 317 319 313 322 330 322 321 332 333 327 322 320 321 321 321 320 318 315 316 321 322 320 319 320 320 316
118 127 137 155 153 139 168 188 161 162 167 129 83 70 57 64 121 102 47 38 32 6 351 27 351 319 220 168 187 203 160 103 82 44 8 4 10 21 27 21 18 16 2 345 328 307 302 301 296 292 289 284 279 268 255 252 287 307 305 318 317 309 319 328 319 325 343 337 327 323 323 324 324 324 323 320 320 322 323 321 317 315 317 317 312
116 125 124 131 128 129 178 191 169 156 156 108 73 57 40 38 58 77 65 47 27 9 7 20 13 356 4 54 6 20 71 84 81 52 15 14 14 22 26 19 17 15 2 350 341 326 312 300 290 283 289 291 287 283 279 283 303 310 312 320 316 314 330 332 325 338 345 335 325 324 325 325 325 324 322 321 321 322 322 319 316 314 313 311 306
125 121 106 103 99 87 160 163 109 131 171 135 100 87 50 39 53 66 66 45 359 350 1 13 9 7 27 48 24 24 55 70 67 47 33 22 18 21 20 14 12 7 1 357 344 321 304 296 293 294 302 304 302 304 309 313 317 319 320 321 321 327 333 331 334 346 339 327 322 323 324 323 322 321 321 321 321 320 319 317 314 312 311 309 307
129 126 103 87 73 41 40 80 75 2 218 141 120 131 147 79 22 23 22 358 317 308 324 339 338 350 35 65 46 10 27 37 30 26 16 359 3 6 1 3 5 2 0 357 338 316 301 296 302 308 309 308 311 319 322 321 324 327 323 320 325 332 332 336 349 344 329 321 323 324 322 319 318 320 323 322 319 318 318 317 316 313 311 309 309
120 116 102 98 99 69 56 82 96 32 11 134 156 172 170 166 178 246 274 279 270 272 290 301 302 306 338 78 94 23 357 347 344 349 339 334 340 338 340 350 355 358 2 344 313 302 303 305 306 313 317 316 321 329 327 323 325 327 324 323 328 331 332 341 346 335 322 320 326 323 319 319 320 320 321 319 317 317 318 319 318 316 314 312 312
101 92 91 101 117 108 83 94 116 118 127 164 229 246 240 232 204 177 188 225 238 253 275 276 270 274 276 266 249 260 284 298 308 312 309 312 316 317 324 332 329 325 330 321 299 289 294 301 304 314 322 321 321 327 327 323 324 326 325 325 326 326 330 338 335 327 324 328 327 322 320 323 323 321 319 318 318 319 319 319 320 319 317 317 316
98 97 99 98 103 105 98 103 116 105 28 293 283 261 261 273 272 232 204 211 209 203 219 243 248 243 246 259 270 272 279 290 298 302 304 306 308 311 316 319 313 295 274 272 281 286 294 303 311 318 320 318 318 321 323 323 324 324 323 324 326 327 330 331 329 329 332 330 324 322 323 323 322 320 319 320 320 320 319 319 319 320 320 320 318
132 137 129 108 96 116 114 101 95 78 307 294 290 282 275 277 276 274 271 257 242 228 210 205 214 226 230 241 262 272 281 291 295 297 298 296 299 309 313 309 303 288 258 240 247 280 303 307 307 312 316 316 317 318 317 320 324 323 322 325 327 327 326 326 328 332 331 324 319 320 321 320 319 319 319 319 320 319 318 318 319 319 319 318 317
142 148 151 143 119 125 124 115 105 91 257 253 264 278 287 286 276 274 275 272 277 287 274 207 188 204 228 247 265 272 275 286 302 308 299 287 286 295 298 292 292 294 283 264 269 293 305 304 307 314 317 317 318 316 314 318 323 321 319 319 321 322 322 323 323 323 321 318 317 318 319 319 320 322 321 320 319 318 317 318 317 317 316 316 316
150 142 154 164 148 132 134 142 161 189 220 246 266 279 285 283 281 284 285 279 270 278 285 266 208 203 225 246 263 279 292 313 323 319 302 279 271 272 272 275 283 291 295 294 292 294 295 296 301 305 306 308 311 310 309 312 316 316 316 316 316 315 315 314 313 313 313 314 315 316 318 320 322 323 323 320 319 318 317 316 315 314 314 316 315
191 138 145 151 149 157 169 173 197 219 222 232 251 265 270 273 274 274 279 285 285 278 279 277 265 257 255 246 227 226 289 313 318 310 288 260 243 243 254 273 286 288 289 290 288 289 291 292 292 293 296 300 303 303 303 307 309 311 314 315 314 313 313 313 314 315 315 316 316 318 320 321 321 322 321 317 315 314 313 314 315 315 315 315 313
200 213 206 191 195 251 248 224 221 228 228 230 238 248 255 260 267 265 259 262 269 268 266 268 267 272 281 282 239 246 286 299 313 318 307 276 250 250 267 285 292 290 289 288 287 290 291 288 287 290 293 293 296 298 300 302 304 306 309 311 312 313 315 316 318 319 319 319 320 323 323 321 319 318 316 313 312 314 315 315 315 313 310 309 308
205 209 213 217 232 253 256 248 238 233 236 241 244 254 261 259 265 271 268 263 261 258 258 267 271 272 285 296 291 291 291 290 301 317 320 308 294 290 292 293 292 290 291 293 295 297 295 293 296 299 296 293 294 296 296 299 301 303 305 308 309 309 312 316 317 318 320 321 322 321 320 318 319 318 316 314 315 315 314 312 309 308 307 306 307
215 193 180 193 234 246 243 244 239 233 236 243 246 255 263 264 264 268 270 271 271 265 261 266 268 261 244 279 285 293 293 284 284 292 298 297 296 297 295 293 295 297 298 301 303 303 303 306 309 304 296 294 296 297 297 299 300 300 304 308 310 309 312 316 317 318 321 322 322 321 322 323 324 323 320 319 319 316 313 311 310 310 310 310 309
210 196 177 180 221 242 243 240 233 224 224 235 245 251 255 258 258 257 257 262 268 271 270 268 262 238 240 284 294 308 305 287 279 279 283 287 291 293 292 291 292 296 304 312 312 306 305 307 304 297 293 295 298 299 301 303 303 303 305 307 309 311 314 318 321 323 323 323 324 327 328 329 330 327 323 321 319 317 314 313 312 311 310 309 310
211 214 212 211 222 237 244 239 230 222 221 226 236 243 246 249 253 253 253 258 263 266 268 268 263 249 263 303 310 315 306 286 274 273 276 280 285 287 287 285 285 290 302 311 310 302 300 300 297 294 295 296 298 300 303 304 306 307 307 307 309 313 317 318 321 324 325 326 327 329 330 329 328 325 322 319 317 315 314 312 312 311 309 309 309
210 214 217 218 224 231 236 235 235 232 229 230 235 239 241 245 249 249 249 254 258 257 258 260 263 261 261 285 307 308 295 279 273 273 274 277 280 280 280 283 288 292 295 297 297 297 298 297 296 295 296 296 297 300 302 304 306 308 309 309 312 315 316 317 320 323 327 329 327 324 323 324 324 322 321 319 317 315 313 311 310 309 308 307 306
193 200 202 203 208 211 215 228 238 234 228 227 231 233 235 236 239 244 245 247 251 254 254 256 261 264 264 268 277 283 280 275 275 275 273 273 275 276 277 281 287 290 289 288 291 294 294 294 296 296 296 296 297 298 300 302 304 306 308 309 311 313 318 326 330 327 324 324 323 321 321 322 322 321 319 317 315 312 310 308 308 307 307 306 305
186 195 195 194 195 197 202 214 224 226 228 230 229 229 229 228 228 236 243 247 252 257 259 258 259 263 267 270 272 273 274 274 274 274 273 271 274 278 279 279 282 285 285 285 288 291 292 293 295 295 295 296 297 298 299 300 301 303 305 307 308 309 310 315 322 323 320 319 321 322 320 318 317 316 314 313 312 310 309 308 308 307 306 306 305
181 188 198 202 198 190 187 194 203 214 227 234 232 233 234 232 230 233 236 240 249 257 263 265 265 264 265 268 268 268 270 272 272 273 273 273 274 277 278 278 280 283 283 283 286 289 290 291 292 292 293 295 296 297 298 298 298 300 302 302 299 296 297 303 314 322 319 316 317 317 314 312 311 310 309 309 309 308 307 306 305 305 305 305 304
186 190 200 205 197 181 176 181 194 210 223 229 229 231 234 234 234 235 233 235 245 253 255 257 259 259 261 264 267 267 270 271 271 272 273 274 275 276 276 276 279 281 283 284 286 286 287 288 290 290 291 293 293 294 295 294 294 296 297 295 292 293 298 305 313 316 314 313 315 315 311 308 307 305 304 303 303 302 302 302 302 302 303 303 303
194 203 207 204 193 180 179 186 196 207 219 224 222 221 223 226 229 233 234 235 239 244 246 250 253 256 259 263 265 266 268 268 268 270 271 273 274 275 276 277 279 280 281 283 284 285 286 287 288 288 289 290 289 289 290 290 290 289 287 285 288 296 301 305 307 308 309 311 314 313 308 304 302 300 299 298 298 298 298 298 298 299 299 299 299
189 202 208 205 195 186 187 193 200 205 212 218 219 214 213 217 225 230 233 236 237 238 242 247 254 258 260 261 262 265 266 267 268 270 271 271 273 274 275 276 278 280 280 281 284 285 286 287 287 287 288 288 287 288 289 289 288 284 278 280 287 295 299 302 304 305 306 307 310 311 306 300 298 297 296 296 296 296 297 297 297 297 297 297 297
189 198 201 199 196 192 190 193 200 204 206 211 217 214 209 214 224 225 223 226 233 239 241 245 251 256 260 261 262 263 264 265 267 270 271 271 272 274 274 275 277 278 279 281 283 284 285 286 287 287 287 287 287 287 289 289 286 282 281 285 291 297 300 302 304 305 305 305 307 307 303 297 295 295 295 295 295 296 296 296 296 296 295 295 296
Height
840 842 844 846 847 849 851 852 854 855 855 857 858 858 859 859 860 861 862 863 863 865 866 867 868 868 869 869 870 871 871 872 872 873 873 874 874 874 875 875 875 875 875 875 875 875 875 875 875 875 875 875 874 874 873 873 873 872 872 872 872 872 872 872 871 870 869 869 867 866 865 864 863 862 862 860 860 858 857 856 854 852 850 848 846
838 841 842 844 846 848 849 851 852 854 854 855 856 857 858 858 859 860 861 862 862 864 865 865 866 867 868 868 869 870 870 871 872 872 872 873 873 873 873 874 874 874 874 875 874 874 874 874 874 874 874 874 874 874 873 872 872 871 871 871 871 872 872 872 871 869 868 868 867 866 864 864 863 862 861 860 858 857 856 854 852 851 849 847 845
837 839 841 843 844 846 848 849 851 852 852 853 854 855 856 857 858 859 860 860 861 862 863 864 865 866 866 867 868 869 869 870 870 871 871 872 872 872 872 872 873 873 873 874 874 874 874 874 873 873 873 872 872 873 872 872 871 871 871 871 871 871 871 871 870 869 868 867 866 865 864 863 862 861 860 859 857 856 854 853 852 850 848 847 845
836 838 840 842 843 845 847 848 849 850 851 852 853 854 855 855 857 857 858 858 859 861 862 862 864 865 865 866 867 867 868 868 869 869 870 870 871 871 871 871 872 872 872 872 872 873 873 873 873 872 872 872 872 872 871 871 871 871 871 871 871 870 870 870 869 868 868 866 865 864 863 862 861 860 859 858 856 855 853 852 851 849 848 847 845
834 836 839 841 842 844 845 846 847 848 849 850 851 852 853 854 855 856 856 857 857 859 860 861 862 863 864 864 865 866 866 867 868 868 868 869 869 870 870 870 871 871 871 871 871 871 872 872 872 872 872 871 871 871 870 870 870 870 870 870 870 870 869 869 868 868 867 865 864 863 862 861 860 859 858 857 855 853 852 852 850 849 848 846 845
833 835 837 839 841 842 843 844 845 846 847 848 849 850 852 852 853 854 855 856 856 857 858 859 860 861 862 863 863 864 865 865 866 866 867 867 867 868 868 869 869 869 869 870 870 870 870 870 871 871 871 871 870 870 870 869 869 869 869 869 869 869 868 868 867 866 865 864 863 862 861 859 858 857 857 856 854 852 851 850 849 848 847 846 844
832 834 836 838 839 841 842 843 844 845 846 846 847 848 849 850 851 852 853 854 855 855 856 857 858 859 860 861 861 862 863 863 864 864 865 865 866 866 867 867 868 868 868 868 868 868 868 868 869 869 870 870 869 869 869 869 869 868 868 868 868 867 867 866 865 864 864 862 861 860 859 858 857 856 855 854 853 851 850 849 848 847 846 845 843
831 833 835 836 838 840 841 842 843 843 845 845 846 847 847 849 850 851 852 853 853 854 854 855 857 857 858 859 859 860 860 861 862 863 863 864 864 865 865 866 866 866 866 866 866 866 866 866 866 867 867 868 868 868 868 868 868 867 867 867 867 866 866 865 864 864 863 862 860 859 858 857 856 855 853 852 851 850 849 848 847 845 844 843 842
831 832 834 835 837 839 840 842 842 843 844 845 846 846 846 847 848 849 851 851 851 852 853 853 854 855 856 857 857 858 858 859 860 861 861 862 863 863 864 864 865 865 865 865 865 864 864 864 864 864 864 865 865 866 867 867 867 867 866 866 866 866 865 864 864 863 862 861 860 859 857 856 854 853 851 850 850 849 848 848 846 844 843 841 840
830 832 833 834 836 838 839 841 842 843 844 844 845 846 846 847 847 848 849 850 850 851 851 851 852 853 854 855 855 856 856 857 857 858 859 860 861 862 862 862 863 863 864 864 863 863 863 863 862 862 862 863 863 864 865 866 866 866 866 865 865 865 864 864 863 862 861 860 859 858 856 854 853 852 850 850 849 848 848 847 845 843 842 840 837
830 831 833 834 835 837 838 840 841 842 843 844 844 845 845 846 846 847 848 849 849 850 850 850 850 851 852 852 853 854 854 854 855 856 857 859 860 860 861 861 861 862 862 863 863 862 862 862 862 861 861 861 862 862 863 864 864 864 864 864 863 863 863 862 861 861 860 859 857 856 855 853 852 852 850 849 848 848 847 846 844 842 841 838 835
830 831 832 834 835 836 838 839 840 841 841 842 843 844 844 845 845 846 847 847 848 849 849 850 850 851 851 851 852 852 852 852 854 855 856 857 858 859 860 860 860 860 861 861 861 861 861 861 860 859 859 859 860 861 861 861 862 862 862 861 861 861 860 860 859 859 858 857 856 855 854 853 852 851 850 848 847 847 846 845 844 842 840 838 835
830 831 832 834 835 836 837 838 839 840 840 841 842 842 843 844 844 845 846 846 847 848 849 849 850 850 850 850 852 852 851 851 853 854 855 855 857 858 859 859 859 859 859 859 859 859 860 860 859 859 858 858 859 859 859 860 860 859 859 859 858 858 858 857 857 857 856 856 855 854 853 852 851 850 850 849 847 846 845 844 843 841 839 837 835
828 829 831 833 834 836 837 838 839 840 839 840 841 841 842 842 843 844 845 845 846 847 848 849 849 851 851 851 853 852 851 851 852 853 854 855 855 856 857 858 858 858 858 857 857 857 858 859 859 859 858 858 858 858 858 858 858 858 857 857 856 856 855 855 855 854 855 854 853 852 852 851 850 849 849 849 847 846 845 843 842 840 838 836 834
829 829 829 831 833 836 837 837 838 837 837 838 839 840 840 841 842 843 843 844 845 846 847 848 850 851 852 852 854 853 852 852 853 853 854 854 855 855 856 856 857 857 856 856 856 857 857 857 857 858 858 857 856 856 856 857 857 857 856 855 854 854 853 853 853 852 852 852 851 850 850 850 849 848 848 847 847 846 845 843 841 839 836 834 831
832 832 831 831 832 834 834 835 835 835 835 837 837 838 839 840 841 841 842 842 843 845 847 848 850 852 852 853 854 854 852 852 853 853 854 854 854 855 855 855 855 855 855 855 855 855 855 856 856 857 858 857 855 855 855 855 856 856 855 853 852 851 851 851 851 850 850 849 849 848 848 847 847 846 846 846 846 845 843 841 840 838 835 832 829
833 834 833 832 832 833 833 834 834 834 835 836 837 838 838 839 840 840 841 841 842 844 846 847 849 850 850 851 853 852 851 852 852 853 854 854 854 854 855 854 854 854 854 854 854 853 853 854 855 856 857 857 856 855 855 855 855 855 854 853 851 850 849 849 849 848 847 847 846 846 845 845 845 845 845 845 845 844 843 840 839 837 835 831 828
833 834 833 833 833 833 834 834 834 835 836 836 837 838 838 839 840 840 840 840 841 844 845 845 846 847 848 850 852 851 850 850 852 853 854 854 854 854 854 853 853 853 854 854 853 852 853 853 854 855 856 856 855 855 854 854 854 854 853 852 851 850 848 847 846 846 845 845 845 844 844 844 843 843 843 843 843 843 841 840 838 836 834 832 829
833 834 834 834 835 835 835 835 835 836 838 838 838 838 839 839 840 839 840 841 842 843 844 844 845 846 848 851 853 852 850 850 850 851 853 853 853 853 853 852 852 853 854 854 852 852 852 852 852 853 854 854 854 853 853 853 853 853 852 851 850 849 848 846 846 845 845 844 844 843 843 842 842 842 842 841 840 838 837 836 836 834 832 830 829
834 835 835 835 837 838 837 837 837 837 838 839 839 839 839 840 840 840 841 842 843 843 844 845 846 847 848 850 851 851 851 850 850 851 852 852 853 853 853 852 852 852 853 853 852 851 852 852 851 851 852 852 852 852 852 852 852 852 851 850 849 848 847 846 846 845 844 843 842 841 840 840 840 840 839 838 836 835 834 834 834 833 831 828 827
836 836 836 836 839 840 840 838 838 838 839 840 840 840 840 841 841 841 842 843 843 844 845 846 847 848 848 849 849 851 852 851 850 851 852 852 852 852 852 852 852 852 852 852 852 851 851 851 851 851 851 850 851 851 851 851 851 850 850 849 848 848 847 846 845 844 842 841 840 839 838 837 837 837 837 835 834 834 833 833 832 831 829 827 824
838 838 838 839 842 843 842 840 839 840 841 841 842 842 842 842 843 842 843 844 845 845 846 847 848 849 850 850 851 852 852 852 851 852 852 852 852 852 852 852 852 852 852 852 852 851 851 852 851 850 850 849 849 850 850 850 849 849 848 848 847 847 846 845 844 843 842 840 839 838 837 836 836 836 835 834 834 833 831 830 830 828 826 824 823
840 841 842 843 844 844 843 842 842 843 844 844 844 844 843 844 844 845 845 846 846 847 848 848 848 849 850 851 852 853 853 853 852 852 852 853 853 853 852 852 852 852 852 852 852 852 852 852 851 851 850 850 849 849 849 849 848 848 847 846 846 845 844 844 843 842 841 839 838 837 836 836 836 836 834 834 833 832 830 829 828 826 825 823 822
842 843 845 845 845 845 845 845 845 846 846 846 845 845 846 846 846 846 846 846 847 847 848 848 848 848 849 850 851 853 853 853 853 853 854 854 854 854 853 853 853 852 852 852 852 852 853 853 852 852 851 850 850 849 848 848 847 847 846 845 845 844 844 843 842 841 840 839 838 837 837 836 836 835 834 833 832 830 829 828 826 825 824 822 820
844 845 846 846 846 846 846 847 847 846 846 846 846 847 847 846 847 847 847 847 847 848 848 848 848 848 849 850 850 852 853 853 854 854 855 855 855 854 854 853 853 853 853 853 853 853 853 853 852 852 851 851 850 849 848 848 847 846 846 845 844 844 843 843 842 841 840 839 838 837 837 836 835 835 833 832 831 829 828 826 825 823 822 821 819
845 846 847 847 846 846 846 847 847 846 846 846 847 848 847 847 847 848 848 848 849 849 849 849 849 849 849 850 851 852 853 853 854 855 855 855 855 854 854 854 854 853 853 853 854 853 853 853 852 852 851 850 849 849 849 848 847 846 845 845 844 844 843 842 841 840 839 838 838 837 836 835 834 833 832 831 830 828 827 825 824 822 821 820 818
846 846 847 847 846 846 846 846 846 846 846 846 847 847 847 847 848 849 849 849 849 849 849 849 849 849 849 850 851 852 853 854 854 855 855 855 855 855 854 854 854 854 854 854 854 853 853 853 852 851 851 850 849 849 848 847 847 846 846 845 845 844 843 842 841 840 839 838 838 837 835 834 833 832 831 830 829 828 826 825 823 822 821 819 817
846 846 847 847 846 846 846 846 846 845 846 846 845 846 847 847 848 849 850 850 850 850 850 850 850 850 850 850 851 852 852 853 854 855 855 855 855 855 855 854 854 855 854 854 853 853 853 852 851 851 850 849 848 847 847 847 847 846 846 845 845 843 842 842 841 840 839 838 837 836 835 834 832 831 830 829 828 827 826 825 823 822 820 819 816
846 846 846 846 846 847 847 846 845 845 845 846 846 847 848 849 849 850 851 852 852 852 852 852 852 852 851 851 852 852 853 853 854 855 856 856 855 855 855 855 855 855 855 854 853 853 852 852 851 850 849 848 847 846 846 846 846 846 845 845 844 843 842 842 841 840 839 838 837 836 834 833 832 831 830 829 828 827 826 824 823 821 820 818 816
846 846 846 847 847 847 846 846 846 846 846 846 848 849 850 851 851 852 853 854 854 854 854 854 854 853 853 854 854 854 855 855 855 855 856 856 856 856 856 856 856 855 855 854 854 853 852 851 850 850 849 849 847 847 847 846 846 846 845 845 844 843 842 842 841 840 840 839 837 836 835 833 832 831 830 829 827 826 825 824 823 821 819 817 815
846 846 846 847 847 847 847 847 847 847 847 847 849 851 852 852 853 853 854 855 855 855 855 855 855 855 855 855 855 855 856 856 856 856 856 856 856 856 856 856 856 856 855 855 854 853 852 851 850 850 850 849 848 848 848 848 847 847 846 845 844 843 843 842 841 841 840 839 837 836 835 834 832 831 830 829 827 826 825 823 822 821 819 817 815
846 846 846 847 848 848 848 848 849 849 849 849 850 851 851 852 853 854 854 855 855 856 856 856 856 856 856 856 856 856 857 857 857 857 857 857 857 857 857 857 856 856 856 855 854 853 852 851 850 850 850 850 849 849 850 849 848 848 847 846 845 844 843 842 841 841 840 838 837 836 835 833 832 831 830 829 827 826 824 823 822 820 818 816 815
847 847 847 848 848 848 849 849 850 850 850 851 851 851 851 851 851 852 854 855 855 856 856 856 856 856 857 857 857 857 857 858 858 858 858 858 857 857 857 857 856 856 855 854 854 853 852 851 850 850 850 851 850 850 850 850 850 849 848 847 846 844 844 843 842 841 840 838 837 836 834 833 832 831 830 829 827 826 824 823 821 820 818 816 815
848 848 848 848 849 849 849 850 850 851 851 851 851 851 851 851 850 851 852 853 854 854 855 855 856 856 857 857 857 857 858 858 858 858 858 857 857 857 856 856 855 854 854 854 853 852 851 851 850 850 851 851 851 851 851 850 850 849 848 847 846 845 844 843 842 841 840 839 838 836 835 834 832 831 830 828 827 826 824 823 821 820 818 817 815
849 849 849 849 849 849 850 850 851 851 852 852 852 852 852 852 852 851 851 852 852 852 853 853 854 855 855 856 856 857 857 857 857 857 857 857 857 856 856 855 854 852 851 851 851 851 850 850 850 850 851 851 851 851 851 850 850 849 849 848 847 846 845 843 842 841 840 839 838 836 835 834 833 831 830 828 827 826 824 823 822 820 819 818 816
849 850 850 850 850 850 850 851 851 852 852 853 853 853 852 852 852 852 851 852 852 852 851 852 852 853 854 855 855 855 856 856 856 856 856 856 856 856 855 854 853 851 850 850 850 850 850 850 850 850 850 851 851 851 851 850 850 849 849 848 847 846 845 844 843 842 840 839 838 836 835 834 832 831 830 828 827 826 825 823 822 821 820 818 816
850 850 850 850 850 850 851 851 852 852 853 853 853 853 853 853 853 852 852 851 851 852 852 852 852 853 853 853 853 854 855 855 855 855 854 854 854 855 855 854 852 851 850 850 850 850 850 851 851 851 851 851 851 851 851 851 850 849 849 848 847 846 845 843 842 841 840 838 837 836 834 833 832 831 830 829 827 826 825 824 822 821 819 818 816
850 850 850 850 851 851 851 852 852 852 853 853 853 853 853 853 853 853 853 852 852 852 852 852 852 852 852 852 852 853 853 854 853 852 852 852 853 853 853 852 851 851 851 851 851 851 851 851 851 851 851 851 851 851 851 850 850 849 848 847 846 845 843 842 841 840 839 838 836 835 834 833 832 831 830 829 828 827 825 824 822 821 819 817 816
850 850 851 851 851 851 851 851 851 852 852 852 852 852 852 853 853 853 853 852 852 852 852 852 852 852 852 852 852 853 853 853 853 852 852 852 852 852 852 852 851 851 851 851 851 851 851 851 851 851 851 851 851 851 851 850 849 848 847 846 845 844 843 842 840 839 838 837 836 835 834 833 832 831 830 829 828 827 825 824 823 821 819 817 815
849 850 851 851 852 852 851 851 851 851 851 851 851 851 852 852 852 852 851 851 851 851 852 852 852 852 852 852 853 854 854 854 854 854 854 853 852 852 852 852 852 851 851 851 851 851 851 851 850 850 850 850 850 850 850 849 848 848 847 846 845 844 843 842 841 839 838 837 836 835 834 833 832 831 830 829 828 827 826 824 823 821 819 816 814
848 849 850 850 852 852 851 851 851 850 850 851 851 851 851 851 851 852 851 851 850 850 850 851 852 851 851 852 853 854 855 855 855 855 855 854 853 852 852 852 852 852 852 852 852 852 852 851 851 851 851 851 850 850 849 849 848 847 846 846 845 844 843 842 840 839 838 837 836 835 834 833 833 832 831 830 828 827 826 824 822 820 818 816 814
847 847 848 849 851 851 851 851 850 850 850 851 851 851 852 851 851 851 851 851 851 851 850 851 851 850 851 852 853 853 854 855 855 855 854 853 852 852 852 852 853 853 853 852 852 852 852 852 852 852 851 851 851 850 849 849 848 847 846 845 844 843 842 841 840 839 838 837 837 836 835 834 833 832 831 830 829 827 825 823 822 820 818 816 814
844 845 846 847 849 849 850 850 849 849 850 850 850 851 851 851 851 851 851 851 851 851 851 852 851 850 850 852 852 853 854 854 854 854 853 852 852 852 852 852 852 853 853 853 852 852 852 852 852 852 851 851 850 850 849 849 848 847 846 845 844 843 842 841 841 840 839 838 837 837 836 835 834 833 832 830 829 827 825 823 821 820 817 815 813
841 842 844 844 846 847 848 849 848 848 848 849 849 850 850 850 851 851 851 851 851 852 852 852 852 851 851 852 853 853 854 854 853 853 852 852 852 852 852 852 852 853 853 853 853 853 852 852 852 851 851 850 850 849 849 848 848 847 846 845 844 844 843 842 841 841 840 839 838 837 836 836 834 833 832 831 829 827 825 823 821 819 817 815 813
841 842 842 843 844 846 847 847 848 848 848 848 848 849 849 850 850 850 850 851 851 851 852 852 852 852 852 852 853 853 853 853 853 853 853 853 853 853 853 853 852 853 853 853 852 852 852 852 851 851 850 850 849 849 848 848 847 847 846 845 845 844 843 842 842 841 841 840 839 838 837 836 835 834 832 831 829 827 825 823 821 819 816 814 812
840 841 841 842 842 843 844 845 847 847 847 847 847 847 847 848 849 849 850 850 850 851 852 852 852 852 852 852 853 853 853 853 854 853 853 853 853 853 853 853 852 852 852 852 852 852 851 851 851 850 850 849 849 848 848 847 847 846 846 845 844 843 842 841 842 842 842 841 840 839 838 837 835 834 832 830 829 827 824 822 820 818 816 814 811
839 840 840 841 841 841 842 843 845 846 847 847 846 846 846 847 847 848 849 850 850 851 851 851 852 852 852 852 853 853 853 853 853 853 853 853 853 852 853 852 852 852 852 851 851 851 850 850 850 849 849 848 848 847 847 847 846 846 846 844 843 841 841 842 842 842 841 841 840 839 838 837 835 833 832 830 828 826 824 822 820 817 815 813 811
838 839 840 840 840 840 841 842 844 845 846 846 846 846 846 846 847 847 848 848 849 850 851 851 852 851 851 852 852 852 853 853 853 853 853 852 852 852 852 852 852 851 851 850 850 850 850 849 849 848 848 847 847 846 846 846 846 846 845 843 841 840 841 842 841 841 840 840 839 839 838 836 834 832 831 829 827 825 823 821 819 817 815 813 810
838 839 840 840 840 840 840 841 842 843 844 844 844 845 845 846 846 846 847 847 848 849 849 850 850 850 850 851 851 852 852 852 852 852 852 852 851 851 851 851 851 851 850 850 850 849 849 848 848 847 847 847 846 846 846 845 845 845 844 842 840 840 841 841 840 839 839 838 838 837 836 835 833 831 829 827 826 824 822 819 817 815 814 811 809
836 838 839 840 839 839 839 840 841 841 842 842 843 843 844 845 845 846 846 847 847 847 848 848 849 849 849 850 850 850 851 851 851 851 851 851 851 851 851 850 850 850 849 849 849 848 848 847 847 846 846 846 845 845 845 844 844 843 842 841 840 840 840 839 838 838 837 836 835 835 834 832 831 829 827 826 824 822 820 818 815 813 811 809 807
835 836 837 838 838 838 838 839 840 840 841 841 842 842 843 844 844 845 845 846 846 846 847 847 847 848 848 848 848 849 849 850 850 850 850 850 850 850 850 850 849 849 849 848 848 847 847 846 845 845 845 844 844 844 843 843 842 841 840 840 839 838 838 837 836 835 835 834 833 832 831 830 828 827 825 823 822 819 817 816 813 811 809 807 804